M I D A S
Marine Information and Data Acquisition System
Tripno 1831 of the Zeeleeuw from 2009-12-11 07:23:24 to 2009-12-11 15:23:04
Back to CruiseResearch ActivitiesStationsMapUnderway DataData graphs

EquipmentUnitsComments
TimeDGPSUTC
LatitudeDGPSDM.mWGS84
LongitudeDGPSDM.mWGS84
SpeedMeteo Stationm/sRelative wind speed
DirectionMeteo StationdegRelative wind direction
TemperatureMeteo Stationdeg CelciusAir temperature
PressureMeteo StationPaAtmospheric pressure
HumidityMeteo Station%Relative humidity
Missing or incorrect values are displayed as -999
Metereological data collected by the RV Zeeleeuw from 2009-12-11 07:21:24 to 2009-12-11 16:03:35
Time Latitude Longitude Speed Direction Temperature Pressure Humidity
2009-12-11 07:22 51°13.683 2°55.871 6.6 23 10 102920 42
2009-12-11 07:23 51°13.721 2°55.766 8.2 23 10 102920 44
2009-12-11 07:24 51°13.775 2°55.68 5.8 24 10 102920 45
2009-12-11 07:25 51°13.849 2°55.634 4.3 25 10.1 102920 45
2009-12-11 07:26 51°13.912 2°55.629 7.6 22 10.6 102910 46
2009-12-11 07:27 51°13.932 2°55.636 5.5 27 10.5 102910 45
2009-12-11 07:28 51°13.955 2°55.552 8.8 346 10.2 102910 43
2009-12-11 07:29 51°14.066 2°55.455 10.3 336 10.1 102900 46
2009-12-11 07:30 51°14.201 2°55.332 10.6 344 10 102900 43
2009-12-11 07:31 51°14.315 2°55.119 10.8 347 10 102880 45
2009-12-11 07:32 51°14.408 2°54.889 8.4 359 10 102890 47
2009-12-11 07:33 51°14.375 2°54.643 6.3 9 10 102900 47
2009-12-11 07:34 51°14.325 2°54.403 7.3 9 10 102900 47
2009-12-11 07:35 51°14.287 2°54.145 7.1 8 10 102890 46
2009-12-11 07:36 51°14.25 2°53.899 7.2 11 10 102900 44
2009-12-11 07:37 51°14.215 2°53.638 4.9 7 10 102900 47
2009-12-11 07:38 51°14.145 2°53.405 4.9 18 10 102900 43
2009-12-11 07:39 51°14.06 2°53.193 5.3 19 10 102900 45
2009-12-11 07:40 51°13.975 2°52.977 4.2 14 10 102910 42
2009-12-11 07:41 51°13.89 2°52.76 6.2 17 10 102910 45
2009-12-11 07:42 51°13.805 2°52.545 6.9 18 10 102910 47
2009-12-11 07:43 51°13.723 2°52.322 5.4 7 10 102910 43
2009-12-11 07:44 51°13.641 2°52.1 5.5 14 10 102910 42
2009-12-11 07:45 51°13.56 2°51.876 4.7 17 10.1 102900 42
2009-12-11 07:46 51°13.475 2°51.659 7 17 10.1 102900 44
2009-12-11 07:47 51°13.395 2°51.436 7.5 12 10.1 102910 43
2009-12-11 07:48 51°13.322 2°51.27 6.6 45 10.1 102920 42
2009-12-11 07:49 51°13.271 2°51.284 6.1 20 10.1 102930 46
2009-12-11 07:50 51°13.257 2°51.331 5.7 266 10.1 102920 46
2009-12-11 07:51 51°13.259 2°51.352 5.4 267 10.1 102930 47
2009-12-11 07:52 51°13.258 2°51.368 6.4 267 10.1 102940 46
2009-12-11 07:53 51°13.26 2°51.387 5.9 269 10.1 102930 46
2009-12-11 07:54 51°13.26 2°51.406 6.1 267 10.1 102920 47
2009-12-11 07:55 51°13.261 2°51.427 5.5 262 10.1 102920 44
2009-12-11 07:56 51°13.261 2°51.449 4.6 263 10 102920 44
2009-12-11 07:57 51°13.262 2°51.474 6.2 262 10 102920 45
2009-12-11 07:58 51°13.233 2°51.539 3.6 28 10 102920 44
2009-12-11 07:59 51°13.181 2°51.505 5.2 33 10.1 102910 46
2009-12-11 08:00 51°13.135 2°51.421 6.1 29 10 102920 46
2009-12-11 08:01 51°13.113 2°51.348 6.9 22 10 102920 43
2009-12-11 08:02 51°13.099 2°51.274 6.9 22 10 102920 46
2009-12-11 08:03 51°13.088 2°51.192 5.3 21 10 102910 45
2009-12-11 08:04 51°13.078 2°51.106 7.4 19 10 102900 43
2009-12-11 08:05 51°13.066 2°51.023 6.5 32 10 102910 47
2009-12-11 08:06 51°13.037 2°50.954 5.5 30 10 102910 42
2009-12-11 08:07 51°13.005 2°50.884 6.4 30 10 102910 42
2009-12-11 08:08 51°12.973 2°50.809 5.3 27 10 102910 42
2009-12-11 08:09 51°12.948 2°50.727 6.4 21 10 102920 46
2009-12-11 08:10 51°12.939 2°50.636 6.2 20 10 102910 41
2009-12-11 08:11 51°12.932 2°50.54 6.2 22 10 102920 41
2009-12-11 08:12 51°12.919 2°50.449 3.7 25 10 102910 42
2009-12-11 08:13 51°12.901 2°50.355 5.3 28 10 102910 41
2009-12-11 08:14 51°12.882 2°50.264 8.8 30 10.1 102910 42
2009-12-11 08:15 51°12.865 2°50.172 8.5 28 10.1 102900 43
2009-12-11 08:16 51°12.847 2°50.078 7.4 29 10.1 102910 47
2009-12-11 08:17 51°12.819 2°49.994 6.1 30 10.1 102900 44
2009-12-11 08:18 51°12.785 2°49.914 7.1 30 10.1 102910 42
2009-12-11 08:19 51°12.757 2°49.831 7.1 29 10.1 102910 45
2009-12-11 08:20 51°12.731 2°49.745 7.1 28 10.1 102900 44
2009-12-11 08:21 51°12.705 2°49.66 7.3 31 10.1 102900 45
2009-12-11 08:22 51°12.677 2°49.573 8.4 28 10.1 102910 42
2009-12-11 08:23 51°12.65 2°49.489 7.2 31 10.1 102910 44
2009-12-11 08:24 51°12.615 2°49.411 5.3 29 10.1 102910 43
2009-12-11 08:25 51°12.583 2°49.331 8.5 32 10.1 102910 46
2009-12-11 08:26 51°12.548 2°49.25 8.4 31 10.2 102910 42
2009-12-11 08:27 51°12.514 2°49.172 5.6 30 10.1 102920 41
2009-12-11 08:28 51°12.481 2°49.09 4.7 32 10.1 102920 44
2009-12-11 08:29 51°12.446 2°49.01 4.7 29 10.2 102910 44
2009-12-11 08:30 51°12.412 2°48.932 5 37 10.1 102920 41
2009-12-11 08:31 51°12.377 2°48.852 5.1 30 10.1 102910 44
2009-12-11 08:32 51°12.347 2°48.772 5.8 29 10.2 102920 44
2009-12-11 08:33 51°12.322 2°48.685 6 28 10.2 102920 41
2009-12-11 08:34 51°12.297 2°48.597 4.9 28 10.2 102920 45
2009-12-11 08:35 51°12.271 2°48.508 5.2 28 10.2 102920 43
2009-12-11 08:36 51°12.247 2°48.42 5.4 26 10.2 102910 42
2009-12-11 08:37 51°12.244 2°48.327 7.5 19 10.2 102910 45
2009-12-11 08:38 51°12.262 2°48.239 9.2 15 10.2 102910 43
2009-12-11 08:39 51°12.289 2°48.171 10.7 10 10.2 102900 42
2009-12-11 08:40 51°12.321 2°48.117 8.8 3 10.2 102900 45
2009-12-11 08:41 51°12.339 2°48.099 10.7 8 10.2 102910 43
2009-12-11 08:42 51°12.347 2°48.102 6.8 6 10.2 102920 44
2009-12-11 08:43 51°12.351 2°48.096 10.5 25 10.2 102920 42
2009-12-11 08:44 51°12.333 2°48.001 8.1 21 10.2 102920 42
2009-12-11 08:45 51°12.29 2°47.799 7.9 19 10.3 102930 45
2009-12-11 08:46 51°12.223 2°47.568 5 21 10.2 102930 44
2009-12-11 08:47 51°12.169 2°47.311 7.4 17 10.2 102930 44
2009-12-11 08:48 51°12.122 2°47.055 7.8 15 10.2 102930 42
2009-12-11 08:49 51°12.075 2°46.798 8 19 10.2 102920 41
2009-12-11 08:50 51°12.019 2°46.551 8.2 17 10.2 102940 42
2009-12-11 08:51 51°11.975 2°46.286 8.1 15 10.2 102940 44
2009-12-11 08:52 51°11.935 2°46.03 7.3 12 10.2 102920 41
2009-12-11 08:53 51°11.891 2°45.766 6.1 14 10.2 102930 45
2009-12-11 08:54 51°11.85 2°45.507 7.4 16 10.3 102930 45
2009-12-11 08:55 51°11.807 2°45.249 6.6 11 10.2 102930 41
2009-12-11 08:56 51°11.761 2°44.985 9.7 14 10.2 102930 43
2009-12-11 08:57 51°11.722 2°44.731 9.3 15 10.2 102930 41
2009-12-11 08:58 51°11.679 2°44.474 7.8 17 10.2 102940 41
2009-12-11 08:59 51°11.64 2°44.219 7.4 17 10.2 102920 43
2009-12-11 09:00 51°11.599 2°43.965 6.3 12 10.3 102940 42
2009-12-11 09:01 51°11.567 2°43.707 10.9 13 10.2 102940 42
2009-12-11 09:02 51°11.544 2°43.446 10.4 14 10.3 102940 42
2009-12-11 09:03 51°11.521 2°43.183 9.8 16 10.3 102950 44
2009-12-11 09:04 51°11.489 2°42.925 7.7 18 10.3 102960 44
2009-12-11 09:05 51°11.445 2°42.668 7.9 16 10.2 102950 44
2009-12-11 09:06 51°11.386 2°42.427 6.7 22 10.3 102960 45
2009-12-11 09:07 51°11.299 2°42.199 5.1 33 10.2 102950 43
2009-12-11 09:08 51°11.188 2°42.008 7 41 10.3 102960 42
2009-12-11 09:09 51°11.074 2°41.816 5.9 29 10.2 102960 42
2009-12-11 09:10 51°10.977 2°41.606 7.2 19 10.3 102960 45
2009-12-11 09:11 51°11.025 2°41.501 11.9 332 10.3 102930 42
2009-12-11 09:12 51°11.127 2°41.622 14.7 324 10.3 102930 44
2009-12-11 09:13 51°11.279 2°41.728 14.6 329 10.3 102940 43
2009-12-11 09:14 51°11.451 2°41.784 13.1 337 10.4 102930 42
2009-12-11 09:15 51°11.624 2°41.817 15 337 10.4 102930 42
2009-12-11 09:16 51°11.753 2°41.797 9.6 5 10.4 102920 42
2009-12-11 09:17 51°11.75 2°41.732 9 38 10.4 102940 44
2009-12-11 09:18 51°11.721 2°41.698 8 43 10.3 102950 43
2009-12-11 09:19 51°11.673 2°41.644 7.9 34 10.3 102960 41
2009-12-11 09:20 51°11.63 2°41.559 8.7 30 10.3 102970 41
2009-12-11 09:21 51°11.611 2°41.497 8.5 32 10.3 102950 43
2009-12-11 09:22 51°11.594 2°41.435 6.4 29 10.3 102960 42
2009-12-11 09:23 51°11.571 2°41.369 6.4 29 10.3 102950 41
2009-12-11 09:24 51°11.538 2°41.309 6.4 41 10.3 102940 41
2009-12-11 09:25 51°11.501 2°41.253 6.8 37 10.3 102940 44
2009-12-11 09:26 51°11.462 2°41.199 6.6 38 10.3 102940 41
2009-12-11 09:27 51°11.422 2°41.144 6.5 36 10.3 102940 46
2009-12-11 09:28 51°11.387 2°41.09 5.8 36 10.3 102940 42
2009-12-11 09:29 51°11.349 2°41.032 6 37 10.3 102940 45
2009-12-11 09:30 51°11.311 2°40.972 4.3 36 10.3 102940 41
2009-12-11 09:31 51°11.272 2°40.913 5.2 38 10.3 102940 46
2009-12-11 09:32 51°11.229 2°40.859 6.4 39 10.3 102940 45
2009-12-11 09:33 51°11.185 2°40.809 7 43 10.3 102950 42
2009-12-11 09:34 51°11.137 2°40.761 8.2 43 10.3 102950 46
2009-12-11 09:35 51°11.088 2°40.715 6.8 43 10.3 102950 41
2009-12-11 09:36 51°11.037 2°40.665 6.8 26 10.3 102950 45
2009-12-11 09:37 51°10.983 2°40.624 6.6 19 10.3 102950 41
2009-12-11 09:38 51°10.931 2°40.585 6.4 22 10.4 102960 45
2009-12-11 09:39 51°10.878 2°40.545 4.5 41 10.3 102950 43
2009-12-11 09:40 51°10.826 2°40.504 5.6 36 10.3 102950 46
2009-12-11 09:41 51°10.788 2°40.449 7.9 33 10.3 102940 44
2009-12-11 09:42 51°10.761 2°40.379 6.4 26 10.4 102930 42
2009-12-11 09:43 51°10.74 2°40.305 8 26 10.4 102950 42
2009-12-11 09:44 51°10.719 2°40.233 5.5 25 10.4 102940 42
2009-12-11 09:45 51°10.708 2°40.157 9.3 20 10.4 102950 45
2009-12-11 09:46 51°10.706 2°40.08 8.1 15 10.4 102930 45
2009-12-11 09:47 51°10.701 2°39.999 8.5 24 10.4 102940 45
2009-12-11 09:48 51°10.687 2°39.922 5.8 23 10.4 102940 42
2009-12-11 09:49 51°10.665 2°39.847 6.5 31 10.4 102950 45
2009-12-11 09:50 51°10.632 2°39.78 6.7 36 10.4 102950 43
2009-12-11 09:51 51°10.597 2°39.715 6.5 33 10.3 102950 43
2009-12-11 09:52 51°10.562 2°39.648 5.9 34 10.4 102950 46
2009-12-11 09:53 51°10.529 2°39.582 6.9 35 10.4 102940 46
2009-12-11 09:54 51°10.496 2°39.514 5.2 32 10.4 102950 42
2009-12-11 09:55 51°10.466 2°39.446 8.1 32 10.4 102950 42
2009-12-11 09:56 51°10.434 2°39.376 4.8 35 10.4 102940 46
2009-12-11 09:57 51°10.403 2°39.307 6.4 30 10.4 102940 42
2009-12-11 09:58 51°10.385 2°39.231 7.4 20 10.4 102950 46
2009-12-11 09:59 51°10.383 2°39.156 7.5 18 10.4 102940 46
2009-12-11 10:00 51°10.391 2°39.085 7.6 6 10.4 102940 46
2009-12-11 10:01 51°10.412 2°39.021 10.3 2 10.4 102940 43
2009-12-11 10:02 51°10.429 2°38.977 7.4 5 10.4 102920 44
2009-12-11 10:03 51°10.45 2°38.929 9 2 10.4 102930 45
2009-12-11 10:04 51°10.473 2°38.877 9.7 1 10.3 102940 46
2009-12-11 10:05 51°10.512 2°38.799 10.6 3 10.3 102930 43
2009-12-11 10:06 51°10.523 2°38.768 9.5 8 10.3 102930 47
2009-12-11 10:07 51°10.522 2°38.754 10.2 12 10.1 102950 47
2009-12-11 10:08 51°10.515 2°38.749 10.3 17 10 102950 48
2009-12-11 10:09 51°10.512 2°38.721 10.3 13 9.9 102990 48
2009-12-11 10:10 51°10.542 2°38.602 10.4 11 9.9 102950 46
2009-12-11 10:11 51°10.565 2°38.533 8.3 10 9.9 102950 47
2009-12-11 10:12 51°10.572 2°38.5 8.2 13 9.9 102950 45
2009-12-11 10:13 51°10.572 2°38.486 8.5 12 9.9 102950 48
2009-12-11 10:14 51°10.571 2°38.455 6.8 35 10 102950 48
2009-12-11 10:15 51°10.532 2°38.396 2.6 22 9.9 102970 46
2009-12-11 10:16 51°10.431 2°38.469 7.4 256 9.9 102970 50
2009-12-11 10:17 51°10.332 2°38.701 10.1 245 10 102950 45
2009-12-11 10:18 51°10.259 2°38.975 10.3 23 10 102940 46
2009-12-11 10:19 51°10.204 2°39.257 9.7 23 10 102950 45
2009-12-11 10:20 51°10.147 2°39.547 9.5 20 10 102940 48
2009-12-11 10:21 51°10.084 2°39.835 10.9 26 10 102950 48
2009-12-11 10:22 51°10.02 2°40.109 11.6 23 10 102940 49
2009-12-11 10:23 51°9.957 2°40.385 6.7 21 10 102940 48
2009-12-11 10:24 51°9.894 2°40.661 8.9 25 10.1 102950 45
2009-12-11 10:25 51°9.835 2°40.942 7.3 20 10.1 102940 48
2009-12-11 10:26 51°9.799 2°41.226 11 24 10.1 102930 45
2009-12-11 10:27 51°9.787 2°41.463 8.3 25 10.1 102930 48
2009-12-11 10:28 51°9.782 2°41.538 6.1 24 10.1 102940 45
2009-12-11 10:29 51°9.771 2°41.541 9.4 253 10.1 102940 46
2009-12-11 10:30 51°9.76 2°41.543 4.1 264 10.1 102960 45
2009-12-11 10:31 51°9.749 2°41.543 4.4 265 10.2 102970 47
2009-12-11 10:32 51°9.738 2°41.543 6 263 10.2 102970 45
2009-12-11 10:33 51°9.727 2°41.542 6.7 262 10.2 102960 50
2009-12-11 10:34 51°9.716 2°41.541 5.1 261 10.1 102960 49
2009-12-11 10:35 51°9.706 2°41.54 5.3 262 10.2 102970 49
2009-12-11 10:36 51°9.694 2°41.541 8.9 255 10.2 102960 45
2009-12-11 10:37 51°9.681 2°41.543 9 256 10.2 102960 47
2009-12-11 10:38 51°9.667 2°41.565 9.7 23 10.2 102960 46
2009-12-11 10:39 51°9.673 2°41.618 11.1 324 10.2 102950 46
2009-12-11 10:40 51°9.731 2°41.642 10 342 10.2 102940 46
2009-12-11 10:41 51°9.884 2°41.62 15.2 350 10.2 102940 46
2009-12-11 10:42 51°10.051 2°41.559 14.8 355 10.1 102940 46
2009-12-11 10:43 51°10.208 2°41.438 11 5 9.9 102940 45
2009-12-11 10:44 51°10.335 2°41.242 9.5 15 9.8 102950 44
2009-12-11 10:45 51°10.402 2°40.979 7.3 27 9.7 102970 46
2009-12-11 10:46 51°10.398 2°40.694 5.7 26 9.6 102980 49
2009-12-11 10:47 51°10.376 2°40.407 6.3 26 9.7 102980 45
2009-12-11 10:48 51°10.364 2°40.115 5.3 34 9.6 102980 50
2009-12-11 10:49 51°10.358 2°39.834 6.5 28 9.7 102980 45
2009-12-11 10:50 51°10.356 2°39.542 4.2 25 9.6 102980 49
2009-12-11 10:51 51°10.354 2°39.258 5.4 28 9.7 102980 48
2009-12-11 10:52 51°10.354 2°38.966 5.3 30 9.7 102980 49
2009-12-11 10:53 51°10.351 2°38.675 5 31 9.7 102980 49
2009-12-11 10:54 51°10.349 2°38.384 6 27 9.7 102980 44
2009-12-11 10:55 51°10.35 2°38.091 3.8 24 9.7 102990 49
2009-12-11 10:56 51°10.35 2°37.8 2.7 24 9.7 102980 46
2009-12-11 10:57 51°10.349 2°37.51 5.6 25 9.7 102990 46
2009-12-11 10:58 51°10.348 2°37.219 4.2 26 9.7 102980 46
2009-12-11 10:59 51°10.367 2°36.931 5 19 9.7 102990 48
2009-12-11 11:00 51°10.413 2°36.656 8.3 12 9.7 102980 48
2009-12-11 11:01 51°10.533 2°36.464 9.2 360 9.7 102970 46
2009-12-11 11:02 51°10.704 2°36.444 12.1 349 9.8 102960 47
2009-12-11 11:03 51°10.871 2°36.534 12.1 342 9.7 102980 48
2009-12-11 11:04 51°11.035 2°36.633 13.6 342 9.7 102950 47
2009-12-11 11:05 51°11.202 2°36.708 11.4 343 9.7 102960 47
2009-12-11 11:06 51°11.369 2°36.77 15 341 9.7 102960 45
2009-12-11 11:07 51°11.538 2°36.838 14.4 341 9.7 102960 46
2009-12-11 11:08 51°11.699 2°36.904 14.3 344 9.7 102960 47
2009-12-11 11:09 51°11.865 2°36.971 14.3 344 9.7 102950 47
2009-12-11 11:10 51°12.031 2°37.039 14.2 344 9.7 102960 44
2009-12-11 11:11 51°12.199 2°37.105 13.8 344 9.7 102960 46
2009-12-11 11:12 51°12.368 2°37.172 13.5 341 9.7 102970 44
2009-12-11 11:13 51°12.533 2°37.239 11.2 342 9.7 102970 47
2009-12-11 11:14 51°12.699 2°37.303 12.8 344 9.7 102970 46
2009-12-11 11:15 51°12.868 2°37.351 13.7 345 9.7 102960 46
2009-12-11 11:16 51°13.04 2°37.384 12.9 348 9.7 102950 45
2009-12-11 11:17 51°13.213 2°37.405 13.1 348 9.7 102950 44
2009-12-11 11:18 51°13.383 2°37.349 10.6 356 9.7 102960 47
2009-12-11 11:19 51°13.554 2°37.275 10.8 353 9.7 102950 47
2009-12-11 11:20 51°13.723 2°37.199 8.9 352 9.7 102950 47
2009-12-11 11:21 51°13.896 2°37.122 9 357 9.7 102950 45
2009-12-11 11:22 51°13.979 2°36.893 4.4 17 9.7 102980 48
2009-12-11 11:23 51°13.964 2°36.602 4 36 9.7 102990 48
2009-12-11 11:24 51°13.932 2°36.31 3.3 36 9.7 102980 49
2009-12-11 11:25 51°13.898 2°36.019 2.6 35 9.7 102990 49
2009-12-11 11:26 51°13.867 2°35.727 2.9 37 9.7 102990 45
2009-12-11 11:27 51°13.861 2°35.436 7.4 9 9.8 102990 45
2009-12-11 11:28 51°13.992 2°35.271 10.2 355 9.8 102950 48
2009-12-11 11:29 51°14.164 2°35.217 9.3 350 9.8 102940 48
2009-12-11 11:30 51°14.342 2°35.208 12.4 349 9.8 102950 46
2009-12-11 11:31 51°14.52 2°35.203 11.4 347 9.8 102950 47
2009-12-11 11:32 51°14.695 2°35.202 11.9 346 9.8 102960 48
2009-12-11 11:33 51°14.871 2°35.205 12.2 350 9.9 102960 46
2009-12-11 11:34 51°15.047 2°35.211 13.4 348 9.9 102930 47
2009-12-11 11:35 51°15.223 2°35.214 11.9 347 9.8 102930 47
2009-12-11 11:36 51°15.402 2°35.221 12.4 353 9.8 102950 45
2009-12-11 11:37 51°15.574 2°35.228 14.3 353 9.8 102920 46
2009-12-11 11:38 51°15.745 2°35.235 14.4 349 9.7 102940 47
2009-12-11 11:39 51°15.92 2°35.242 14.1 353 9.7 102950 46
2009-12-11 11:40 51°16.09 2°35.252 14.2 348 9.7 102940 46
2009-12-11 11:41 51°16.268 2°35.256 14.7 349 9.6 102930 47
2009-12-11 11:42 51°16.439 2°35.262 15.9 349 9.6 102930 45
2009-12-11 11:43 51°16.611 2°35.264 14.3 350 9.6 102930 44
2009-12-11 11:44 51°16.784 2°35.267 12.3 353 9.7 102940 46
2009-12-11 11:45 51°16.958 2°35.268 13.2 349 9.7 102950 47
2009-12-11 11:46 51°17.127 2°35.268 14 349 9.7 102940 46
2009-12-11 11:47 51°17.296 2°35.263 13.2 349 9.7 102940 46
2009-12-11 11:48 51°17.468 2°35.257 13.3 350 9.8 102940 45
2009-12-11 11:49 51°17.639 2°35.236 11.4 355 9.7 102950 45
2009-12-11 11:50 51°17.758 2°35.053 5.9 18 9.7 102970 47
2009-12-11 11:51 51°17.756 2°34.764 0.7 22 9.8 102990 43
2009-12-11 11:52 51°17.667 2°34.493 1.3 27 9.8 102990 46
2009-12-11 11:53 51°17.567 2°34.234 1.4 42 9.8 102990 45
2009-12-11 11:54 51°17.47 2°33.975 1.7 20 9.8 102990 45
2009-12-11 11:55 51°17.373 2°33.72 2.2 44 9.9 102990 46
2009-12-11 11:56 51°17.277 2°33.462 0.2 21 9.8 102990 45
2009-12-11 11:57 51°17.18 2°33.206 1.4 20 9.9 103000 45
2009-12-11 11:58 51°17.085 2°32.951 2.7 42 9.9 102990 45
2009-12-11 11:59 51°16.989 2°32.694 0.9 28 9.9 103000 42
2009-12-11 12:00 51°16.892 2°32.436 1.8 42 10 103000 46
2009-12-11 12:01 51°16.8 2°32.175 0.4 26 10 103000 46
2009-12-11 12:02 51°16.707 2°31.916 1.7 38 10 103000 46
2009-12-11 12:03 51°16.61 2°31.658 1 20 10 103000 44
2009-12-11 12:04 51°16.509 2°31.398 0.5 38 10 102990 45
2009-12-11 12:05 51°16.415 2°31.146 1.9 20 9.9 103000 47
2009-12-11 12:06 51°16.321 2°30.888 2.7 23 10 102990 44
2009-12-11 12:07 51°16.22 2°30.618 0.3 40 10 102990 42
2009-12-11 12:08 51°16.134 2°30.386 2.2 28 10.1 102990 42
2009-12-11 12:09 51°16.03 2°30.103 6.2 40 10.1 102990 43
2009-12-11 12:10 51°15.96 2°29.828 4.8 40 10.1 102990 45
2009-12-11 12:11 51°15.906 2°29.544 6.6 28 10.2 102990 45
2009-12-11 12:12 51°15.863 2°29.254 7.6 37 10.2 102990 41
2009-12-11 12:13 51°15.819 2°28.961 6.2 29 10.2 102980 43
2009-12-11 12:14 51°15.775 2°28.67 3.7 28 10.3 102980 42
2009-12-11 12:15 51°15.727 2°28.38 7.4 23 10.3 102990 42
2009-12-11 12:16 51°15.681 2°28.086 6.3 32 10.3 102990 44
2009-12-11 12:17 51°15.633 2°27.794 7 28 10.3 102990 43
2009-12-11 12:18 51°15.582 2°27.503 5.2 35 10.3 102980 43
2009-12-11 12:19 51°15.528 2°27.21 2.7 27 10.3 102980 45
2009-12-11 12:20 51°15.474 2°26.909 6.8 33 10.3 102990 46
2009-12-11 12:21 51°15.423 2°26.62 6.9 32 10.3 102990 43
2009-12-11 12:22 51°15.391 2°26.313 6.4 16 10.3 102990 44
2009-12-11 12:23 51°15.39 2°25.999 7.7 30 10.3 102990 45
2009-12-11 12:24 51°15.329 2°25.701 5.9 39 10.3 103000 42
2009-12-11 12:25 51°15.281 2°25.395 6.9 37 10.3 102990 47
2009-12-11 12:26 51°15.248 2°25.09 6.4 38 10.3 102980 46
2009-12-11 12:27 51°15.233 2°24.889 6.9 42 10.3 102990 43
2009-12-11 12:28 51°15.228 2°24.752 8.5 32 10.3 102990 45
2009-12-11 12:29 51°15.241 2°24.613 8.5 21 10.3 102990 43
2009-12-11 12:30 51°15.282 2°24.474 9.6 14 10.3 103010 42
2009-12-11 12:31 51°15.324 2°24.385 9.5 8 10.3 102980 46
2009-12-11 12:32 51°15.363 2°24.324 8.4 4 10.3 102990 43
2009-12-11 12:33 51°15.406 2°24.264 8 5 10.3 102990 46
2009-12-11 12:34 51°15.441 2°24.182 9.6 15 10.3 103010 46
2009-12-11 12:35 51°15.478 2°24.102 9.1 7 10.3 102990 44
2009-12-11 12:36 51°15.515 2°24.044 9.3 358 10.3 103000 47
2009-12-11 12:37 51°15.557 2°24.008 11.2 277 10.3 102990 46
2009-12-11 12:38 51°15.598 2°23.998 11.9 345 10.2 102990 46
2009-12-11 12:39 51°15.639 2°24.013 10.4 281 10.2 102990 45
2009-12-11 12:40 51°15.671 2°24.053 9.9 287 10.2 103000 45
2009-12-11 12:41 51°15.705 2°24.103 10.9 283 10.2 102980 46
2009-12-11 12:42 51°15.734 2°24.16 9.4 285 10.1 102990 46
2009-12-11 12:43 51°15.751 2°24.225 11.4 280 10.1 102980 43
2009-12-11 12:44 51°15.769 2°24.294 9.3 280 10.2 102990 45
2009-12-11 12:45 51°15.787 2°24.366 10.4 280 10.1 102980 43
2009-12-11 12:46 51°15.807 2°24.436 10.6 281 10.1 102980 45
2009-12-11 12:47 51°15.828 2°24.505 8.9 281 10.2 102980 42
2009-12-11 12:48 51°15.851 2°24.577 10.7 282 10.2 102980 44
2009-12-11 12:49 51°15.874 2°24.65 9.9 283 10.2 102980 44
2009-12-11 12:50 51°15.899 2°24.718 11.4 282 10.2 102980 43
2009-12-11 12:51 51°15.93 2°24.774 9.8 281 10.2 102980 42
2009-12-11 12:52 51°15.965 2°24.828 11.1 282 10.2 102980 44
2009-12-11 12:53 51°16.004 2°24.879 11.6 278 10.2 102980 45
2009-12-11 12:54 51°16.047 2°24.931 10.1 280 10.1 102990 44
2009-12-11 12:55 51°16.087 2°24.982 10.6 281 10.2 102980 43
2009-12-11 12:56 51°16.129 2°25.026 13.3 285 10.2 102980 45
2009-12-11 12:57 51°16.173 2°25.07 10.5 279 10.2 102980 43
2009-12-11 12:58 51°16.211 2°25.108 8.5 285 10.3 102970 46
2009-12-11 12:59 51°16.251 2°25.148 10.5 282 10.2 102980 44
2009-12-11 13:00 51°16.297 2°25.194 10.9 284 10.2 102980 46
2009-12-11 13:01 51°16.342 2°25.24 11.7 282 10.2 102980 45
2009-12-11 13:02 51°16.385 2°25.288 9.7 280 10.2 102970 43
2009-12-11 13:03 51°16.424 2°25.328 11.6 283 10.2 102980 44
2009-12-11 13:04 51°16.461 2°25.364 12.9 279 10.1 102990 43
2009-12-11 13:05 51°16.498 2°25.401 10.8 277 10.1 102970 46
2009-12-11 13:06 51°16.534 2°25.44 9.7 286 10.1 102980 45
2009-12-11 13:07 51°16.574 2°25.461 10 350 10.1 102990 43
2009-12-11 13:08 51°16.623 2°25.419 9.6 2 10.1 102970 44
2009-12-11 13:09 51°16.673 2°25.352 10.1 6 10 102960 45
2009-12-11 13:10 51°16.717 2°25.279 12.6 8 10 102960 47
2009-12-11 13:11 51°16.756 2°25.193 9.2 12 10 102970 45
2009-12-11 13:12 51°16.793 2°25.112 10.3 6 9.9 102960 46
2009-12-11 13:13 51°16.832 2°25.041 10.1 5 9.8 102970 44
2009-12-11 13:14 51°16.87 2°24.971 9.7 2 9.8 102970 45
2009-12-11 13:15 51°16.908 2°24.906 10.9 4 9.8 102970 46
2009-12-11 13:16 51°16.94 2°24.846 10.6 2 9.9 102970 44
2009-12-11 13:17 51°16.971 2°24.787 9.2 6 9.8 102960 45
2009-12-11 13:18 51°17.004 2°24.737 10.8 1 9.8 102960 46
2009-12-11 13:19 51°17.031 2°24.693 11.2 1 9.8 102950 45
2009-12-11 13:20 51°17.031 2°24.647 11.1 9 9.8 102960 47
2009-12-11 13:21 51°17.026 2°24.599 9.3 2 9.9 102960 44
2009-12-11 13:22 51°17.048 2°24.571 14 284 9.9 102960 44
2009-12-11 13:23 51°17.04 2°24.615 13 283 9.9 102920 43
2009-12-11 13:24 51°16.948 2°24.711 12.8 281 10 102960 44
2009-12-11 13:25 51°16.824 2°24.891 12.8 283 10 102950 45
2009-12-11 13:26 51°16.675 2°25.043 13.2 286 10 102940 44
2009-12-11 13:27 51°16.515 2°25.154 11.8 278 10 102940 45
2009-12-11 13:28 51°16.356 2°25.267 11.8 286 10 102970 44
2009-12-11 13:29 51°16.234 2°25.374 10.7 283 10.1 102960 44
2009-12-11 13:30 51°16.163 2°25.434 10.8 283 10 102980 45
2009-12-11 13:31 51°16.134 2°25.438 11.3 282 10.1 102970 44
2009-12-11 13:32 51°16.115 2°25.414 11.5 282 10 102970 46
2009-12-11 13:33 51°16.103 2°25.377 7.8 280 9.9 102960 43
2009-12-11 13:34 51°16.091 2°25.334 9.9 279 10 102980 46
2009-12-11 13:35 51°16.077 2°25.291 10.8 277 10 102980 44
2009-12-11 13:36 51°16.065 2°25.254 9.5 283 10 102980 43
2009-12-11 13:37 51°16.052 2°25.215 9.7 280 10 102960 45
2009-12-11 13:38 51°16.039 2°25.175 9.3 284 9.9 102970 43
2009-12-11 13:39 51°16.024 2°25.137 10.4 278 10.1 102970 46
2009-12-11 13:40 51°16.01 2°25.101 9 286 10 102970 45
2009-12-11 13:41 51°15.994 2°25.067 10.4 284 10.1 102980 43
2009-12-11 13:42 51°15.976 2°25.033 13.6 283 10 102990 44
2009-12-11 13:43 51°15.959 2°24.997 11.5 278 10 102970 46
2009-12-11 13:44 51°15.944 2°24.962 11.1 283 10.1 102970 44
2009-12-11 13:45 51°15.928 2°24.923 9.9 285 10 102970 46
2009-12-11 13:46 51°15.913 2°24.887 9.4 282 10 102970 43
2009-12-11 13:47 51°15.881 2°24.867 7.6 284 9.9 102970 44
2009-12-11 13:48 51°15.783 2°24.839 9 284 9.9 102990 42
2009-12-11 13:49 51°15.723 2°24.96 13.2 287 10 102960 44
2009-12-11 13:50 51°15.691 2°25.183 13.7 284 9.9 102930 44
2009-12-11 13:51 51°15.681 2°25.416 14.4 281 10 102960 45
2009-12-11 13:52 51°15.683 2°25.653 15.2 281 10 102950 46
2009-12-11 13:53 51°15.683 2°25.89 14.4 281 10 102950 44
2009-12-11 13:54 51°15.682 2°26.126 12.9 279 10 102940 45
2009-12-11 13:55 51°15.703 2°26.358 13.1 283 10 102950 44
2009-12-11 13:56 51°15.741 2°26.589 13.6 284 10 102970 46
2009-12-11 13:57 51°15.778 2°26.822 13.9 280 9.9 102950 46
2009-12-11 13:58 51°15.815 2°27.059 13.8 279 9.9 102960 45
2009-12-11 13:59 51°15.85 2°27.303 11.5 285 9.9 102960 45
2009-12-11 14:00 51°15.882 2°27.549 12.2 287 9.9 102940 47
2009-12-11 14:01 51°15.915 2°27.785 13.9 282 9.9 102940 45
2009-12-11 14:02 51°15.976 2°28.003 11.9 284 9.9 102940 44
2009-12-11 14:03 51°16.041 2°28.223 14.8 283 9.9 102960 46
2009-12-11 14:04 51°16.103 2°28.446 13.7 284 9.9 102960 44
2009-12-11 14:05 51°16.165 2°28.674 14.2 278 9.9 102940 44
2009-12-11 14:06 51°16.224 2°28.898 12.7 278 9.9 102940 45
2009-12-11 14:07 51°16.282 2°29.114 12.3 284 9.9 102960 45
2009-12-11 14:08 51°16.345 2°29.341 14.8 281 9.8 102950 44
2009-12-11 14:09 51°16.407 2°29.566 13.5 285 9.9 102970 45
2009-12-11 14:10 51°16.466 2°29.787 13.1 280 9.9 102960 46
2009-12-11 14:11 51°16.529 2°30.015 14 280 9.9 102970 43
2009-12-11 14:12 51°16.585 2°30.235 15.4 286 9.9 102970 45
2009-12-11 14:13 51°16.645 2°30.455 14.8 282 9.9 102960 43
2009-12-11 14:14 51°16.705 2°30.681 15.9 280 9.9 102970 45
2009-12-11 14:15 51°16.761 2°30.893 13.9 283 9.9 102950 45
2009-12-11 14:16 51°16.821 2°31.112 14.8 283 9.8 102970 47
2009-12-11 14:17 51°16.882 2°31.332 13.6 281 9.6 102960 46
2009-12-11 14:18 51°16.943 2°31.556 13.8 278 9.6 102970 46
2009-12-11 14:19 51°17.007 2°31.782 13.9 280 9.6 102970 46
2009-12-11 14:20 51°17.065 2°32.004 13.4 284 9.5 102970 46
2009-12-11 14:21 51°17.124 2°32.227 12.9 281 9.5 102970 46
2009-12-11 14:22 51°17.184 2°32.453 13.5 278 9.5 102960 46
2009-12-11 14:23 51°17.243 2°32.681 14.4 282 9.5 102970 47
2009-12-11 14:24 51°17.305 2°32.901 12.8 281 9.5 102960 45
2009-12-11 14:25 51°17.366 2°33.125 11.9 281 9.5 102960 45
2009-12-11 14:26 51°17.428 2°33.35 13.1 281 9.5 102960 47
2009-12-11 14:27 51°17.495 2°33.575 11.6 282 9.5 102970 45
2009-12-11 14:28 51°17.557 2°33.799 12.8 282 9.6 102970 45
2009-12-11 14:29 51°17.622 2°34.023 13 279 9.5 102960 46
2009-12-11 14:30 51°17.674 2°34.258 11.9 285 9.5 102970 46
2009-12-11 14:31 51°17.708 2°34.502 9.4 280 9.5 102970 45
2009-12-11 14:32 51°17.735 2°34.748 11.9 283 9.5 102950 47
2009-12-11 14:33 51°17.744 2°34.994 11.1 281 9.5 102970 46
2009-12-11 14:34 51°17.744 2°35.245 12.3 283 9.6 102970 47
2009-12-11 14:35 51°17.72 2°35.494 12.4 283 9.6 102960 46
2009-12-11 14:36 51°17.673 2°35.735 13.1 280 9.6 102970 46
2009-12-11 14:37 51°17.635 2°35.972 12.5 281 9.6 102970 44
2009-12-11 14:38 51°17.598 2°36.209 11.2 286 9.6 102970 43
2009-12-11 14:39 51°17.576 2°36.452 10.6 281 9.5 102980 44
2009-12-11 14:40 51°17.556 2°36.709 11.9 283 9.6 102970 44
2009-12-11 14:41 51°17.537 2°36.968 11.6 287 9.6 102970 46
2009-12-11 14:42 51°17.515 2°37.223 12.4 282 9.6 102990 46
2009-12-11 14:43 51°17.495 2°37.476 12 283 9.5 102970 45
2009-12-11 14:44 51°17.473 2°37.733 12.6 282 9.5 102970 46
2009-12-11 14:45 51°17.452 2°37.985 12.3 281 9.4 102960 45
2009-12-11 14:46 51°17.431 2°38.238 14 283 9.4 102980 44
2009-12-11 14:47 51°17.411 2°38.492 12.9 279 9.4 102990 47
2009-12-11 14:48 51°17.398 2°38.748 13.2 279 9.4 102960 46
2009-12-11 14:49 51°17.391 2°39.004 12.6 283 9.4 102960 46
2009-12-11 14:50 51°17.382 2°39.257 15.2 283 9.3 102970 44
2009-12-11 14:51 51°17.376 2°39.505 13.2 282 9.4 102960 43
2009-12-11 14:52 51°17.365 2°39.75 13.2 279 9.4 102970 45
2009-12-11 14:53 51°17.353 2°39.997 15.2 282 9.3 102950 44
2009-12-11 14:54 51°17.34 2°40.242 14.9 282 9.3 102970 44
2009-12-11 14:55 51°17.338 2°40.489 13.1 282 9.4 102950 45
2009-12-11 14:56 51°17.348 2°40.735 15.3 284 9.4 102960 46
2009-12-11 14:57 51°17.356 2°40.984 13.6 284 9.4 102950 46
2009-12-11 14:58 51°17.368 2°41.233 16 284 9.4 102950 45
2009-12-11 14:59 51°17.378 2°41.485 14.7 278 9.3 102950 43
2009-12-11 15:00 51°17.387 2°41.738 13.4 283 9.4 102960 45
2009-12-11 15:01 51°17.396 2°41.992 15.8 279 9.4 102960 44
2009-12-11 15:02 51°17.406 2°42.247 14.2 280 9.4 102970 45
2009-12-11 15:03 51°17.418 2°42.5 14.1 281 9.3 102960 44
2009-12-11 15:04 51°17.429 2°42.751 15.3 286 9.3 102960 45
2009-12-11 15:05 51°17.442 2°42.997 15.1 280 9.3 102970 44
2009-12-11 15:06 51°17.436 2°43.244 13.1 285 9.3 102980 46
2009-12-11 15:07 51°17.404 2°43.489 12.1 278 9.2 102970 43
2009-12-11 15:08 51°17.355 2°43.739 13.4 283 9.3 102970 44
2009-12-11 15:09 51°17.27 2°43.971 12 282 9.2 102970 44
2009-12-11 15:10 51°17.135 2°44.16 12.2 279 9.2 102970 45
2009-12-11 15:11 51°16.985 2°44.324 11.5 281 9.2 102980 46
2009-12-11 15:12 51°16.831 2°44.486 9.1 281 9.2 102970 45
2009-12-11 15:13 51°16.693 2°44.668 10.3 284 9.2 102990 46
2009-12-11 15:14 51°16.546 2°44.926 13.7 32 9.2 102970 46
2009-12-11 15:16 51°16.394 2°45.195 11.9 306 9.2 102970 45
2009-12-11 15:17 51°16.268 2°45.412 11.8 236 9.2 102970 46
2009-12-11 15:18 51°16.157 2°45.631 9.5 37 9.2 102980 44
2009-12-11 15:19 51°16.055 2°45.859 12.7 239 9.2 102970 45
2009-12-11 15:20 51°15.956 2°46.088 12.6 36 9.2 102980 46
2009-12-11 15:21 51°15.865 2°46.319 11.4 35 9.2 102970 46
2009-12-11 15:22 51°15.788 2°46.559 12.1 37 9.1 102960 47
2009-12-11 15:23 51°15.738 2°46.806 12.4 317 9.1 102980 46
2009-12-11 15:24 51°15.714 2°47.061 11.1 316 9.1 102980 48
2009-12-11 15:25 51°15.697 2°47.315 13.8 320 9 102970 46
2009-12-11 15:26 51°15.679 2°47.57 14.7 318 9 102980 47
2009-12-11 15:27 51°15.657 2°47.827 13.2 317 9 102980 47
2009-12-11 15:28 51°15.637 2°48.084 11.9 321 8.9 102960 46
2009-12-11 15:29 51°15.614 2°48.344 12.8 317 8.9 102980 45
2009-12-11 15:30 51°15.593 2°48.603 13.5 319 8.9 102990 46
2009-12-11 15:31 51°15.572 2°48.863 12.5 320 8.8 102970 45
2009-12-11 15:32 51°15.547 2°49.126 14.1 316 8.8 102980 45
2009-12-11 15:33 51°15.521 2°49.387 13.6 315 8.8 102980 44
2009-12-11 15:34 51°15.489 2°49.635 15.1 35 8.8 102980 44
2009-12-11 15:35 51°15.456 2°49.896 14 316 8.8 102980 44
2009-12-11 15:36 51°15.423 2°50.161 14.2 316 8.8 102990 45
2009-12-11 15:37 51°15.391 2°50.425 14.5 36 8.8 102990 44
2009-12-11 15:38 51°15.354 2°50.688 14.3 39 8.8 102990 44
2009-12-11 15:39 51°15.32 2°50.945 14.2 34 8.8 102990 46
2009-12-11 15:40 51°15.289 2°51.201 15 35 8.7 102970 43
2009-12-11 15:41 51°15.27 2°51.46 15.1 32 8.7 102990 44
2009-12-11 15:42 51°15.243 2°51.717 13.7 39 8.7 103000 44
2009-12-11 15:43 51°15.175 2°51.966 12.9 37 8.7 103000 43
2009-12-11 15:44 51°15.098 2°52.213 14 37 8.7 103000 44
2009-12-11 15:45 51°15.029 2°52.465 14.1 37 8.7 103000 44
2009-12-11 15:46 51°14.977 2°52.725 13.7 36 8.7 103000 45
2009-12-11 15:47 51°14.941 2°52.99 15.8 316 8.7 102990 44
2009-12-11 15:48 51°14.901 2°53.253 13.4 34 8.7 102990 42
2009-12-11 15:49 51°14.837 2°53.51 11.7 34 8.7 103000 45
2009-12-11 15:50 51°14.768 2°53.765 14.5 34 8.7 102990 45
2009-12-11 15:51 51°14.7 2°54.018 14.6 34 8.7 102970 43
2009-12-11 15:52 51°14.626 2°54.268 14.7 235 8.6 102990 44
2009-12-11 15:53 51°14.543 2°54.514 13.3 235 8.6 102980 44
2009-12-11 15:54 51°14.452 2°54.752 14.2 236 8.7 102980 43
2009-12-11 15:55 51°14.367 2°54.994 12.7 236 8.6 102990 44
2009-12-11 15:56 51°14.272 2°55.228 11.7 239 8.6 103000 43
2009-12-11 15:57 51°14.14 2°55.398 5.3 241 8.6 103030 42
2009-12-11 15:58 51°13.994 2°55.504 7 236 8.6 103030 42
2009-12-11 15:59 51°13.883 2°55.586 5.6 253 8.5 103050 45
2009-12-11 16:00 51°13.784 2°55.677 5 251 8.5 103040 42
2009-12-11 16:01 51°13.716 2°55.79 3.7 245 8.4 103040 41
2009-12-11 16:02 51°13.679 2°55.89 4.5 38 8.5 103040 41
2009-12-11 16:03 51°13.664 2°55.955 2.4 238 8.4 103040 43